Location: Cella
(44.7333°N, 10.5667°E)
Time: 12:12:30
(UTC+00:00)

Cosmos 1943 Rocket - Pass Details

Date: 03 March 2021
Orbit: 811 x 844 km, 71.0° (Epoch: 17 April)

Event Time Altitude Azimuth Distance (km) Brightness Sun altitude
Rises 20:44:37 0° 340° (NNW) 3,413 6.0 -37.6°
Reaches altitude 10° 20:47:19 10° 349° (N) 2,474 5.0 -38.0°
Enters shadow 20:48:42 17° 358° (N) 2,038 4.5 -38.2°
